Key West, FL

2:35 PM EDT on August 03, 2015 (GMT -0400)
Key West International | | Change Station
CLOSE
Current Station
Airport
Location: Key West,
Elevation: 0 ft
Nearby Weather Stations

Elev 0 ft 24.56 °N, 81.75 °W | Updated 42 minutes ago

Clear
Clear
89 °F
Feels Like 99 °F
N
7
Wind Variable Wind from SSE

Today
High -- | Low -- °F
--% Chance of Precip.
Yesterday
High -- | Low -- °F
Precip. -- in
6:56 AM 8:09 PM
Waning Gibbous, 85% visible
Pressure 30.01 in
Visibility 10.0 miles
Clouds Clear
Heat Index 99 °F
Dew Point 75 °F
Humidity 63%
Rainfall 0.00 in
Snow Depth Not available.
UV 16 out of 12
Pollen 4.00 out of 12
Air Quality Not available.
Flu Activity Not available.
METAR KEYW 031753Z 16006KT 10SM CLR 32/24 A3001 RMK AO2 SLP161 T03170239 10317 20294 58002

More Conditions Fewer Conditions

Pressure 30.01 in
Visibility 10.0 miles
Clouds Clear
Heat Index 99 °F
Dew Point 75 °F
Humidity 63%
Rainfall 0.00 in
Snow Depth Not available.
UV 16 out of 12
Pollen 4.00 out of 12
Air Quality Not available.
Flu Activity Not available.
METAR KEYW 031753Z 16006KT 10SM CLR 32/24 A3001 RMK AO2 SLP161 T03170239 10317 20294 58002

More Conditions Fewer Conditions

Nowcast | as of 2:23 PM EDT on August 3, 2015

Through 400 PM...showers and thunderstorms will continue to develop across the waters north and south of the Florida Keys. These showers...moving north northwest at 5 knots...will cause reductions to visibility to around 4 miles in areas of moderate to heavy rainfall...brief gusty winds...and occasional lightning. These have been observed over Hawk Channel and will cross the islands and move toward Bayside waters through the rest of the afternoon.

×

10-Day Weather Forecast

×

Almanac

Astronomy

Aug. 03, 2015 Rise Set
Actual Time
Civil Twilight
Nautical Twilight
Astronomical Twilight
Moon
Length of Visible Light
Length of Day
Tomorrow will be .
, % of the Moon is Illuminated

Today's Extremes

State Highs State Lows

Community

WunderPhotos

Upload Photos

1,843,703 photos uploaded!

WunderBlogs® & News

Nearby

Air Quality

  Air Quality AQ Index Pollutant
Not available.

Snow Depth

Station Depth Elevation

Earthquake Activity

City Distance Mag. Time & Date
Minimum magnitude displayed is 2.5.

Coastal Water Temperatures

Place Temperature

Stations

Nearby Weather Stations

Station Location Temp. Windchill Dew Point Humidity Wind Precip. Elev Updated Type